EW3182 Weather Reports


time (UTC)temp
F
wind
direction
speed
knots
gust
knots
rain 1hr
in
rain 24hr
in
rain mn
in
humidity
%
barometer
mb
20260509134533 76 97 0.0 0.9 0.00 0.00 0.00 78 1009.4
20260509133028 74 72 0.0 0.9 0.00 0.00 0.00 79 1009.2
20260509131529 74 44 0.0 0.9 0.00 0.00 0.00 80 1009.3
20260509130025 72 118 0.0 0.0 0.00 0.00 0.00 80 1009.3
20260509124519 70 131 0.0 0.9 0.00 0.00 0.00 79 1009.3
20260509123019 69 81 0.0 0.0 0.00 0.00 0.00 77 1009.4
20260509121520 67 4 0.0 0.0 0.00 0.00 0.00 76 1009.2
20260509120022 66 93 0.0 0.0 0.00 0.00 0.00 77 1009.0
20260509114513 0 0.0 0.0 0.00 0.00 0.00 1008.9
20260509113009 0 0.0 0.0 0.00 0.00 0.00 1008.6
20260509111507 0 0.0 0.0 0.00 0.00 0.00 1008.1
20260509110059 0 0.0 0.0 0.00 0.00 0.00 1007.8
20260509104608 0 0.0 0.0 0.00 0.00 0.00 1007.8
20260509103103 0 0.0 0.0 0.00 0.00 0.00 1007.7
20260509101546 0 0.0 0.0 0.00 0.00 0.00 1007.7
20260509100041 0 0.0 0.0 0.00 0.00 0.00 1007.5
20260509094538 0 0.0 0.0 0.00 0.00 0.00 1007.1
20260509093034 70 98 0.0 0.0 0.00 0.00 0.00 79 1006.9
20260509091537 70 98 0.0 0.0 0.00 0.00 0.00 79 1007.0
20260509090047 70 105 0.0 7.0 0.00 0.00 0.00 79 1006.4
20260509084533 70 259 1.7 9.6 0.00 0.00 0.00 79 1005.6
20260509083030 70 193 0.9 6.1 0.00 0.00 0.00 79 1005.7
20260509081542 69 274 1.7 6.1 0.00 0.00 0.00 78 1005.5
20260509080025 69 273 0.9 3.5 0.00 0.00 0.00 78 1007.0
20260509074521 69 244 0.9 4.3 0.00 0.00 0.00 78 1007.9
20260509073034 69 224 0.0 3.5 0.00 0.00 0.00 78 1008.5
20260509071516 69 190 0.0 2.6 0.00 0.00 0.00 76 1009.0
20260509070030 68 193 0.0 2.6 0.00 0.00 0.00 74 1009.3
20260509064512 67 314 0.0 0.0 0.00 0.00 0.00 75 1010.0
20260509063017 67 314 0.0 0.0 0.00 0.00 0.00 76 1009.7
20260509061508 68 313 0.0 0.0 0.00 0.00 0.00 77 1009.7
20260509060007 68 314 0.0 0.9 0.00 0.00 0.00 77 1009.7
20260509054506 68 162 0.0 0.0 0.00 0.00 0.00 79 1010.1
20260509053005 69 162 0.0 0.0 0.00 0.00 0.00 79 1010.1
20260509051601 69 162 0.0 0.0 0.00 0.00 0.00 80 1010.2
20260509050056 70 162 0.0 0.0 0.00 0.00 0.00 81 1009.5
20260509044556 71 160 0.0 0.9 0.00 0.00 0.00 81 1009.4
20260509043054 71 132 0.0 2.6 0.00 0.00 0.00 81 1009.0
20260509041554 71 229 0.0 2.6 0.00 0.00 0.00 80 1008.8
20260509040054 71 170 0.0 1.7 0.00 0.00 0.00 80 1009.0
20260509034553 71 133 0.0 0.9 0.00 0.00 0.00 80 1009.2
20260509033052 72 132 0.0 0.0 0.00 0.00 0.00 80 1009.3
20260509031551 72 297 0.0 0.9 0.00 0.00 0.00 80 1008.7
20260509030054 72 273 0.0 1.7 0.00 0.00 0.00 80 1008.3
20260509024551 72 289 0.0 1.7 0.00 0.00 0.00 80 1008.0
20260509023050 72 271 0.0 3.5 0.00 0.00 0.00 80 1007.5
20260509021549 72 110 0.0 2.6 0.00 0.00 0.00 80 1007.5
20260509020055 72 281 0.9 4.3 0.00 0.00 0.00 80 1007.1
20260509014550 72 212 0.0 2.6 0.00 0.00 0.00 79 1007.4
20260509013050 72 122 0.0 0.9 0.00 0.00 0.00 79 1007.6
20260509011547 72 138 0.0 1.7 0.00 0.00 0.00 79 1007.8
20260509010048 72 249 0.0 2.6 0.00 0.00 0.00 78 1007.3
20260509004546 72 232 0.0 3.5 0.00 0.00 0.00 78 1007.0
20260509003046 73 257 0.0 2.6 0.00 0.00 0.00 77 1006.9
20260509001543 73 280 0.0 3.5 0.00 0.00 0.00 76 1006.9
20260509000042 73 264 0.0 1.7 0.00 0.00 0.00 76 1007.0
20260508234544 73 269 0.0 3.5 0.00 0.00 0.00 76 1007.2
20260508233037 73 235 0.9 3.5 0.00 0.00 0.00 75 1007.4
20260508231536 73 296 0.0 3.5 0.00 0.00 0.00 74 1007.5
20260508230035 74 293 0.0 3.5 0.00 0.00 0.00 74 1007.4
20260508224535 74 276 0.0 3.5 0.00 0.00 0.00 73 1007.4
20260508223039 74 135 0.9 7.0 0.00 0.00 0.00 72 1007.4
20260508221533 74 269 0.0 3.5 0.00 0.00 0.00 71 1007.5
20260508220034 74 274 0.9 6.1 0.00 0.00 0.00 70 1007.6
20260508214528 75 288 1.7 5.2 0.00 0.00 0.00 68 1007.8
20260508213027 74 270 0.9 5.2 0.00 0.00 0.00 68 1007.9
20260508211524 74 218 0.9 4.3 0.00 0.00 0.00 68 1008.1
20260508210024 75 293 0.0 5.2 0.00 0.00 0.00 66 1008.3
20260508204521 75 142 0.0 3.5 0.00 0.00 0.00 67 1008.2
20260508203018 71 99 0.0 2.6 0.00 0.00 0.00 71 1008.8
20260508201515 71 75 0.0 5.2 0.00 0.00 0.00 71 1009.6
20260508200013 72 160 0.0 3.5 0.00 0.00 0.00 70 1010.0
20260508194514 73 262 0.0 3.5 0.00 0.00 0.00 69 1009.8
20260508193012 73 277 0.9 4.3 0.00 0.00 0.00 70 1009.8
20260508191521 73 183 0.9 4.3 0.00 0.00 0.00 70 1009.9
20260508190013 73 273 0.0 3.5 0.00 0.00 0.00 70 1010.0
20260508184508 74 252 0.9 3.5 0.00 0.00 0.00 67 1010.2
20260508183005 74 248 0.9 3.5 0.00 0.00 0.00 66 1010.4
20260508181502 74 231 0.9 3.5 0.00 0.00 0.00 66 1010.5
20260508180104 74 287 0.9 5.2 0.00 0.00 0.00 66 1010.8
20260508174608 73 122 0.0 4.3 0.00 0.00 0.00 67 1011.1
20260508173059 73 135 0.9 3.5 0.00 0.00 0.00 67 1011.3
20260508171554 72 248 0.0 4.3 0.00 0.00 0.00 66 1011.6
20260508170053 74 269 0.0 2.6 0.00 0.00 0.00 66 1011.7
20260508164550 72 219 0.0 3.5 0.00 0.00 0.00 68 1011.9
20260508163051 70 223 0.0 3.5 0.00 0.00 0.00 68 1012.3
20260508161541 69 285 0.0 4.3 0.00 0.00 0.00 70 1012.7
20260508160039 69 245 0.9 4.3 0.00 0.00 0.00 69 1012.9
20260508154537 68 143 0.0 3.5 0.00 0.00 0.00 69 1013.0
20260508153034 67 250 0.0 3.5 0.00 0.00 0.00 69 1013.1
20260508151536 67 113 0.0 2.6 0.00 0.00 0.00 70 1013.4
20260508150033 66 122 0.0 2.6 0.00 0.00 0.00 71 1013.4
20260508144527 66 273 0.9 4.3 0.00 0.00 0.00 71 1013.3
20260508143029 65 224 0.0 4.3 0.00 0.00 0.00 71 1013.6
20260508141538 65 240 0.0 1.7 0.00 0.00 0.00 74 1013.4
20260508140021 64 252 0.9 5.2 0.00 0.00 0.00 76 1013.5